Regional Weather Roundup
Issued by NWS Upton, NY

Current Version | Previous Version | Graphics & Text | Print | Product List | Glossary Off
Versions: 1 2 3 4 5 6 7 8 9 10 11 12 13 14 15 16 17 18 19 20 21 22 23 24 25 26 27

000
ASUS41 KOKX 151208
RWROKX

REGIONAL WEATHER ROUNDUP
NATIONAL WEATHER SERVICE NEW YORK NY
700 AM EST FRI DEC 15 2017

NOTE: "FAIR" INDICATES FEW OR NO CLOUDS BELOW 12,000 FEET WITH NO
SIGNIFICANT WEATHER AND/OR OBSTRUCTIONS TO VISIBILITY.

NYZ071-072-176-178-NJZ106-104-151300-
NEW YORK CITY METRO AREA

CITY           SKY/WX    TMP DP  RH WIND       PRES   REMARKS
Central Park   PTCLDY    21   8  57 W5        30.12R WCI  15
Bronx Bot Gard   N/A     21   9  58 N3        30.12S
Bronx Lehman C NOT AVBL
LaGuardia APRT MOCLDY    23   9  55 CALM      30.11R
Queens College NOT AVBL
Kennedy INTL   CLOUDY    21  11  65 N3        30.13R
Breezy Point     N/A    N/A N/A N/A NW5         N/A
Brooklyn Coll  NOT AVBL
Staten Island  NOT AVBL
Newark/Liberty CLOUDY    21   7  54 SW6       30.12R WCI  13
Teterboro      PTCLDY    19  10  68 SW3       30.11R
$$

NYZ177-179-078>081-151300-
LONG ISLAND NEW YORK

CITY           SKY/WX    TMP DP  RH WIND       PRES   REMARKS
Jones Beach      N/A    N/A N/A N/A N3          N/A
Wantagh        NOT AVBL
Matinecock PT    N/A    N/A N/A N/A W5          N/A
Farmingdale    CLOUDY    19  10  68 CALM      30.12R
MacArthur/ISP  MOCLDY    16  10  77 SW3       30.10R
Shirley        CLEAR     13   8  81 CALM      30.12R
Mt Sinai Harb    N/A    N/A N/A N/A S2          N/A
Westhampton    CLEAR      4  -1  80 CALM      30.13R
East Hampton   FAIR       9   6  87 CALM      30.11R
Southold       NOT AVBL
Montauk          N/A     25  14  63 NW8       30.11S WCI  16
$$

NYZ052-065-067-151300-
HUDSON VALLEY

CITY           SKY/WX    TMP DP  RH WIND       PRES   REMARKS
White Plains   CLEAR     16   9  74 NW3       30.07R
Larchmont Harb   N/A    N/A N/A N/A SW5         N/A
Croton On Huds   N/A    N/A N/A N/A NE1         N/A
Somers         NOT AVBL
Brewster       NOT AVBL
Newburgh       PTCLDY    12   9  85 CALM      30.07S
Montgomery     PTCLDY     6   3  87 CALM      30.05S
Otisville      NOT AVBL
Warwick        NOT AVBL
Suffern        NOT AVBL
Poughkeepsie   CLEAR      8   4  83 CALM      30.09R
Albany         MOCLDY     9   4  80 CALM      30.07S
$$

NJZ001-105-106-008-010-013-015-019>022-104-151300-
NEW JERSEY

CITY           SKY/WX    TMP DP  RH WIND       PRES   REMARKS
Newark/Liberty CLOUDY    21   7  54 SW6       30.12R WCI  13
Teterboro      PTCLDY    19  10  68 SW3       30.11R
Caldwell       CLOUDY    15   9  76 CALM      30.11R
Somerville     CLOUDY    10   7  87 CALM      30.11R
Linden         FAIR      20   8  60 CALM      30.12S
Perth Amboy      N/A    N/A N/A N/A W7          N/A
Sussex         CLOUDY     6   4  91 S3        30.06R
Andover          N/A     10   7  87 CALM      30.07R
Trenton        CLOUDY    20   9  62 NW3       30.11S
Millville      CLOUDY    23  15  71 E5        30.12F WCI  17
Atlantic City  PTCLDY    21  14  74 CALM      30.13S
Wrightstown    MOCLDY    20  13  75 CALM      30.10R
Toms River     PTCLDY    17  12  80 CALM      30.14R
Belmar         MOCLDY    18   9  68 SW5       30.12S WCI  11
$$

PAZ047>061-062-071-151300-
EASTERN PENNSYLVANIA

CITY           SKY/WX    TMP DP  RH WIND       PRES   REMARKS
Philadelphia   CLOUDY    25  10  53 S3        30.14R
Allentown      PTCLDY    13   7  77 N3        30.09S
Scranton       PTCLDY     9   4  80 SE3       30.03R
$$

CTZ002-004>006-009-010-012-RIZ004-006-007-MAZ004-011-015-151300-
SOUTHERN NEW ENGLAND
 IN CT

CITY           SKY/WX    TMP DP  RH WIND       PRES   REMARKS
Bradley INTL   CLOUDY    11   7  84 CALM      30.08S
Hartford       CLOUDY    12   7  80 CALM      30.11R
Danbury        CLOUDY     9   5  84 W3        30.08R
Wtrbury/Oxford CLEAR      6   3  87 CALM      30.05R
Norwalk Harbor   N/A    N/A N/A N/A NW5         N/A
Bridgeport     CLEAR     18   6  59 N6        30.11S WCI  10
Meriden        CLEAR      7   3  84 CALM      30.10S
New Haven      CLEAR     13   4  67 CALM      30.11R
Chester        FAIR      12   3  67 CALM      30.06F
Groton         CLEAR     16   5  62 CALM      30.10S
Wilimantic     CLOUDY     7   3  84 CALM      30.09S

 IN RI

CITY           SKY/WX    TMP DP  RH WIND       PRES   REMARKS
Providence     CLEAR     11   5  77 SW5       30.10R WCI   3
Block Island   CLEAR     20  12  71 N6        30.10  WCI  12
Westerly       CLEAR     12   7  80 CALM      30.10S
 IN MA

CITY           SKY/WX    TMP DP  RH WIND       PRES   REMARKS
Boston         CLOUDY    19   7  59 W7        30.08R WCI  10
Worcester      CLOUDY    13   5  70 W12       29.98R WCI  -1
Westfield      CLOUDY    12   7  80 CALM      30.07S
Provincetown   PTCLDY    21  15  78 W8        30.09R WCI  11
Nantucket      CLEAR     21  11  65 NW5       30.09R WCI  15
$$

ANZ330-335-338-340-345-350-353-355-151300-
COASTAL MARINE OBSERVATIONS


STATION/POSITION TIME  SKY/WX   TEMP    WIND        PRES    VSBY  WAVE
                                AIR SEA DIR/SP/G                  HT/PER
                 (UTC)          (F)     (DEG/KT/KT) (MB)    (MI)  (FT/S)
NY HARB ENTRANCE 1050            27 49  340/  6/ 10 1019.2          2/ 8
20 S FIRE ISLAND 1050            27 51   30/  4/  6 1019.7          2/ 8
GREAT SOUTH BAY  1130            24 45  300/  4/  6   N/A
HUDSON CANYON    1050            34 55  330/  6/  8 1018.8          4/ 6
KINGS POINT      1136            22 41   40/  2/  4 1020.6
EXECUTION ROCKS  1145            23     290/  6/ 10   N/A
WESTERN LI SOUND NOT AVBL
CENTRAL LI SOUND 1130            25     340/  6/ 10   N/A           1
ROBBINS REEF     1136            22     280/  4/  6 1020.4
$$


>>>>>>>>>>>>>>>>>>>>>>>>>>>> KEY <<<<<<<<<<<<<<<<<<<<<<<<<<<
>                                                          <
>     SKY/WX - Sky Condition/Present Weather               <
>     TMP    - Temperature in Fahrenheit                   <
>     DP     - Dew Point in Fahrenheit                     <
>     RH     - Relative Humidity in Percent                <
>     WIND   - Direction (from) and Speed in MPH           <
>     PRES   - Mean Sea Level Pressure (inches of Hg)      <
>     WCI    - Wind Chill Index                            <
>     VSB    - VISIBILITY IN MILES                         <
>     HX     - HEAT INDEX                                  <
>     TC     - TEMPERATURE IN CELSIUS                      <
>     VRB    - VARIABLE WIND DIRECTION                     <
>                                                          <
>>>>>>>>>>>>>>>>>>>>>>>>>>>> KEY <<<<<<<<<<<<<<<<<<<<<<<<<<<




USA.gov is the U.S. government's official web portal to all federal, state and local government web resources and services.